Wind_Speed
7 8 9 10 11 13 14 16 18 20 22 23 24 25 26 26 27 28 29 30 31 31 32 33 34 34 34 35 35 35 36 36 37 38 38 38 38 38 38 38 39 40 41 42
7 8 10 10 12 13 15 16 18 20 21 22 23 24 24 25 26 26 27 28 28 29 30 31 32 32 32 33 33 33 33 33 34 34 34 34 34 35 36 37 37 38 39 40
8 9 10 11 12 14 15 16 18 19 20 21 22 23 24 25 25 26 26 26 27 27 28 29 29 29 30 30 29 30 30 30 30 30 31 32 33 33 34 35 35 36 37 37
9 10 10 12 12 13 15 16 17 18 19 20 20 21 22 23 23 23 24 24 24 24 25 26 27 27 26 26 26 26 27 27 27 28 30 31 32 32 33 33 34 34 34 33
10 11 11 12 12 12 13 13 13 15 17 18 19 20 20 20 20 21 22 22 22 23 23 23 23 23 23 23 24 24 25 26 26 27 28 29 29 30 30 30 30 30 31 31
11 11 12 12 12 11 11 11 13 14 15 16 17 17 18 17 18 19 20 20 20 20 20 21 20 20 21 22 22 23 24 24 25 25 26 26 26 27 28 28 28 28 28 28
13 12 12 13 12 11 11 13 13 13 13 14 14 15 16 15 15 16 16 17 17 17 18 19 20 20 20 21 21 22 22 22 23 23 24 24 24 25 26 26 26 26 26 26
14 13 13 13 13 12 12 13 13 12 12 13 13 13 13 13 12 13 13 14 15 15 16 17 18 18 18 19 19 20 20 20 21 21 22 22 23 23 23 23 23 23 23 23
14 14 14 14 14 13 13 13 13 12 12 12 12 12 12 11 11 11 12 13 14 14 15 16 17 17 17 18 18 18 18 19 20 20 20 21 21 21 21 21 21 21 21 20
15 15 15 15 14 14 13 13 12 12 12 12 12 12 11 11 11 11 11 12 13 14 15 16 16 16 17 17 16 16 17 17 18 19 19 19 19 19 19 19 18 18 17 17
15 15 15 15 14 14 13 12 12 12 12 12 11 11 10 10 10 10 11 11 12 13 14 15 15 15 14 14 14 15 15 16 16 16 16 16 17 17 17 16 15 15 14 13
16 16 15 15 14 14 13 12 12 12 12 11 11 11 10 10 10 10 10 10 11 11 12 12 13 13 13 13 14 14 14 14 14 14 14 14 14 14 14 13 12 11 11 10
15 16 15 15 14 14 14 13 12 12 12 12 11 10 10 9 9 9 10 10 10 10 11 11 11 11 11 11 12 12 12 12 12 12 12 12 12 11 11 10 9 9 8 7
15 15 15 15 14 14 14 13 13 12 12 11 11 10 9 9 9 9 9 10 10 10 10 10 10 10 10 9 10 10 10 10 10 10 10 9 9 9 8 8 7 6 5 6
14 15 15 15 14 14 13 13 13 12 12 11 10 9 9 9 9 9 9 9 9 10 9 9 9 9 9 9 9 8 8 8 8 8 8 7 7 7 7 6 5 5 5 6
14 14 15 15 14 14 13 13 12 12 11 10 10 10 10 10 10 10 9 9 9 9 9 9 9 8 9 8 8 7 7 7 7 7 7 7 6 6 6 5 5 5 5 6
13 14 14 15 14 14 13 12 11 11 10 10 10 10 11 11 10 10 10 10 10 10 10 9 9 8 7 7 7 6 6 6 6 6 6 6 6 6 5 5 5 5 5 6
12 13 14 14 13 13 13 12 11 11 10 10 10 11 11 11 11 11 11 11 11 11 11 10 9 8 7 6 6 6 6 6 6 6 6 6 6 5 5 5 5 6 6 6
12 12 13 13 13 12 12 11 11 10 10 10 10 11 11 11 11 11 11 12 12 12 11 11 10 9 7 6 5 5 6 6 6 7 6 6 6 6 6 6 6 6 6 6
10 11 12 12 12 11 11 11 11 10 10 10 10 11 11 12 12 12 12 12 12 12 12 12 11 10 9 7 6 6 6 7 7 7 7 7 7 7 6 6 6 6 6 6
9 10 11 11 11 11 11 10 10 10 10 10 10 10 11 12 12 13 13 13 13 13 13 13 12 12 11 10 8 8 7 7 7 7 7 7 7 7 7 7 7 7 7 7
8 9 10 10 10 10 10 10 10 10 10 10 10 10 11 12 12 13 14 14 13 13 13 14 14 13 12 11 10 10 9 8 8 8 7 7 7 7 7 7 7 7 7 7
8 8 9 9 9 9 9 9 9 9 9 9 9 10 10 11 12 12 13 13 13 14 14 14 14 14 13 12 11 11 10 10 9 9 9 9 9 9 8 8 8 8 8 8
7 7 8 8 8 8 8 9 9 9 9 9 9 9 9 10 11 12 12 12 13 13 13 14 14 14 14 13 12 12 11 11 10 10 9 9 9 9 9 8 8 8 8 8
7 7 7 7 7 7 8 8 8 8 8 8 8 8 8 8 9 11 11 11 12 12 13 13 13 14 14 14 13 12 11 11 10 10 9 9 8 8 8 8 8 8 8 9
7 7 7 7 7 7 7 7 7 7 7 7 7 7 7 8 8 9 10 10 10 11 12 12 13 13 13 13 13 13 12 11 10 10 9 8 8 8 8 8 8 8 8 8
8 7 7 7 6 6 6 6 6 6 6 6 6 6 6 6 7 7 8 9 9 10 10 11 12 12 12 12 12 12 12 12 11 10 9 8 8 8 8 8 8 8 8 8
Wind_Direction
288 282 278 272 269 265 262 261 261 262 264 265 266 267 266 266 267 268 268 269 270 269 270 270 271 271 271 272 272 273 273 273 275 276 276 277 278 278 280 280 281 284 286 287
302 294 287 282 279 277 274 272 269 268 269 269 271 269 269 269 270 271 270 271 272 271 271 271 272 272 272 271 272 272 272 273 275 276 276 278 280 282 283 285 287 288 290 290
321 311 301 292 288 284 281 278 273 271 272 272 273 271 270 269 270 272 271 270 269 269 270 271 272 272 270 270 270 272 273 273 275 277 279 282 283 283 284 287 288 291 292 293
329 322 313 307 298 291 285 283 278 276 276 276 276 273 272 272 271 271 273 269 268 269 270 269 269 270 271 273 272 273 275 276 276 278 281 283 284 286 288 290 291 292 293 295
339 331 322 318 311 302 296 290 287 283 280 279 279 278 274 272 269 269 268 266 267 269 270 271 271 273 274 276 277 278 280 280 281 284 286 288 289 291 292 293 294 295 297 299
345 338 329 326 321 314 303 298 294 292 289 288 286 282 278 272 268 269 268 267 269 273 275 275 277 276 276 279 281 283 284 286 287 288 289 290 292 292 293 295 296 298 299 302
349 343 338 333 329 324 316 311 307 301 297 297 294 289 285 279 274 273 273 274 274 276 277 279 278 279 281 283 284 285 286 288 290 292 293 293 294 295 296 297 298 299 301 304
350 348 344 338 333 328 321 315 312 308 305 303 301 297 291 288 286 283 280 278 279 280 281 283 284 285 285 285 285 286 288 291 294 296 297 299 299 299 299 299 300 301 303 305
350 347 342 339 335 332 326 322 319 317 315 313 310 307 303 297 291 290 288 284 282 284 286 286 285 286 286 287 288 290 291 293 296 298 301 302 302 302 302 302 302 303 305 308
350 347 343 342 340 338 334 329 325 323 320 317 315 313 309 303 298 295 294 291 289 289 290 290 289 289 291 292 293 293 294 297 299 301 302 303 304 304 305 304 304 306 308 311
352 350 347 346 344 342 339 336 333 329 327 325 321 317 316 313 310 307 303 301 299 297 295 295 294 294 294 295 295 297 299 301 303 303 304 304 305 306 307 307 307 310 312 316
352 350 349 348 347 347 345 343 341 340 338 336 333 330 326 322 320 319 316 312 308 307 306 305 305 303 300 299 298 299 301 304 306 307 308 309 310 311 312 313 315 317 320 324
351 351 351 350 349 348 346 344 343 341 339 338 337 334 331 329 327 325 321 318 315 313 312 312 312 310 307 304 303 304 305 309 311 313 314 315 317 319 320 323 326 328 332 340
352 352 353 353 352 351 350 348 347 346 345 345 344 342 340 338 335 333 330 327 324 321 319 319 320 320 320 317 316 315 316 319 319 319 321 324 327 330 333 336 341 348 357 2
352 353 354 355 355 355 353 352 351 351 352 353 353 352 351 348 344 342 340 337 334 331 328 326 327 328 330 330 329 328 330 332 333 335 338 342 344 346 348 353 1 12 17 17
352 353 356 356 356 355 355 354 355 356 358 359 1 1 359 356 352 351 350 348 347 346 343 339 334 333 334 336 337 338 340 342 345 348 352 355 356 359 5 14 22 26 27 23
352 355 356 357 357 358 359 359 0 2 6 9 9 7 6 6 4 2 2 2 1 359 354 350 345 342 340 342 346 350 353 355 355 358 3 5 7 14 20 26 28 28 27 26
352 355 356 357 359 1 3 5 5 7 12 15 16 15 14 14 14 14 14 14 12 9 7 4 1 359 356 354 356 1 6 7 11 16 17 14 18 24 29 31 32 32 31 31
351 354 356 357 -0 3 6 9 11 12 14 15 17 18 20 21 23 24 23 21 19 19 19 18 17 15 14 14 15 17 20 23 25 26 27 30 35 39 39 40 38 37 37 36
350 352 354 357 360 4 7 11 13 14 17 19 22 24 25 26 27 26 24 23 24 25 26 25 26 28 30 32 33 35 36 35 35 38 40 42 43 43 43 43 41 40 40 38
347 350 353 356 360 3 8 11 12 14 17 20 23 26 27 28 29 29 28 28 29 31 32 32 34 36 39 43 45 47 46 42 40 41 42 43 44 45 46 45 44 45 45 44
342 346 350 354 357 2 6 10 12 14 16 19 23 27 29 31 31 32 32 33 34 36 37 38 40 41 44 46 47 48 47 44 44 44 46 47 48 47 48 49 50 51 50 46
336 342 346 351 354 358 3 8 10 13 15 18 22 26 30 33 32 32 33 35 37 39 41 41 41 43 45 46 47 48 49 49 50 52 55 56 55 54 54 55 56 54 51 48
328 335 341 346 350 355 360 4 7 11 14 17 19 22 27 30 31 33 34 35 38 40 42 43 43 44 45 47 48 48 48 49 50 54 56 54 53 52 51 52 52 50 48 47
316 324 331 337 342 348 354 359 5 9 12 16 19 20 23 26 29 31 33 34 36 38 40 41 41 41 41 42 43 44 44 44 46 48 49 50 50 49 48 48 48 49 49 49
299 310 319 327 333 340 345 351 358 3 7 11 14 15 17 20 25 29 31 32 34 37 38 39 39 38 39 40 41 42 42 41 41 42 44 45 44 43 45 47 48 49 50 51
282 292 302 312 319 326 332 337 344 350 356 1 4 5 7 12 17 21 24 28 31 34 36 36 36 36 36 36 37 37 37 38 38 38 38 38 39 42 45 46 46 48 48 47
Height
5765 5765 5764 5764 5763 5763 5763 5763 5763 5762 5761 5760 5760 5759 5759 5759 5759 5759 5758 5759 5759 5758 5758 5758 5757 5757 5756 5756 5755 5754 5753 5752 5750 5749 5747 5745 5744 5742 5739 5737 5734 5732 5729 5726
5763 5762 5761 5760 5759 5758 5758 5757 5756 5755 5755 5754 5753 5753 5752 5752 5752 5751 5750 5750 5750 5750 5749 5749 5748 5748 5747 5746 5745 5744 5743 5742 5741 5739 5738 5736 5734 5732 5730 5727 5725 5722 5718 5715
5761 5760 5758 5757 5756 5754 5753 5751 5751 5750 5749 5747 5746 5746 5745 5745 5744 5744 5743 5742 5742 5742 5741 5740 5740 5739 5739 5738 5736 5735 5734 5733 5732 5731 5729 5727 5725 5723 5721 5718 5715 5712 5709 5705
5759 5758 5756 5756 5752 5750 5748 5747 5745 5744 5743 5741 5741 5740 5739 5738 5737 5736 5735 5735 5734 5734 5733 5733 5732 5731 5730 5729 5728 5727 5726 5725 5723 5722 5721 5719 5717 5714 5712 5709 5706 5703 5699 5696
5758 5755 5753 5751 5748 5746 5744 5742 5741 5739 5738 5736 5735 5734 5733 5732 5731 5730 5729 5728 5728 5727 5726 5726 5725 5724 5723 5722 5721 5720 5719 5717 5716 5714 5712 5710 5708 5706 5703 5700 5697 5694 5691 5687
5756 5754 5751 5749 5746 5743 5742 5739 5737 5735 5733 5731 5730 5729 5728 5726 5725 5724 5723 5722 5722 5721 5720 5719 5718 5717 5716 5715 5715 5713 5712 5711 5709 5707 5705 5703 5701 5698 5696 5693 5690 5687 5683 5680
5754 5752 5749 5746 5743 5741 5740 5737 5733 5731 5729 5727 5725 5725 5723 5721 5720 5719 5718 5717 5716 5715 5714 5714 5713 5712 5710 5709 5708 5707 5706 5704 5702 5701 5699 5696 5694 5691 5688 5686 5683 5680 5676 5673
5752 5750 5749 5743 5740 5738 5736 5732 5730 5728 5725 5723 5722 5720 5718 5716 5715 5715 5714 5712 5711 5710 5710 5709 5707 5706 5705 5704 5703 5702 5700 5698 5696 5695 5692 5690 5687 5684 5682 5679 5676 5673 5670 5667
5752 5750 5745 5741 5738 5735 5732 5729 5727 5725 5722 5720 5718 5716 5715 5713 5712 5711 5710 5708 5707 5706 5705 5704 5703 5702 5701 5699 5698 5696 5695 5693 5691 5689 5686 5684 5681 5679 5676 5673 5670 5667 5665 5662
5749 5746 5742 5739 5735 5732 5729 5727 5724 5722 5719 5717 5715 5713 5712 5710 5708 5707 5706 5705 5703 5702 5701 5700 5698 5697 5696 5694 5692 5691 5689 5688 5685 5683 5681 5679 5676 5673 5670 5668 5665 5663 5660 5657
5748 5744 5740 5737 5734 5731 5727 5725 5722 5719 5717 5715 5713 5711 5709 5707 5706 5704 5703 5702 5700 5699 5697 5696 5694 5692 5691 5690 5688 5687 5685 5683 5681 5679 5676 5674 5671 5668 5666 5663 5661 5659 5656 5654
5747 5743 5740 5736 5732 5729 5726 5723 5720 5718 5715 5713 5711 5709 5707 5705 5704 5702 5701 5699 5697 5696 5694 5692 5690 5689 5687 5686 5684 5683 5681 5679 5677 5674 5672 5669 5667 5664 5662 5660 5657 5655 5653 5652
5745 5742 5738 5734 5731 5728 5725 5722 5719 5717 5714 5711 5709 5707 5705 5704 5702 5700 5698 5697 5695 5693 5691 5689 5687 5685 5684 5682 5681 5679 5677 5675 5673 5671 5668 5666 5664 5662 5660 5658 5656 5654 5652 5650
5744 5740 5737 5733 5730 5727 5724 5721 5718 5715 5713 5710 5708 5706 5704 5702 5700 5698 5696 5695 5693 5691 5689 5687 5685 5683 5681 5679 5677 5676 5674 5672 5670 5668 5666 5664 5662 5660 5658 5656 5654 5653 5651 5650
5743 5740 5736 5733 5729 5726 5723 5720 5717 5715 5712 5709 5707 5705 5703 5701 5699 5697 5695 5693 5691 5688 5686 5684 5682 5681 5679 5677 5675 5673 5672 5670 5668 5666 5664 5662 5661 5659 5657 5656 5654 5653 5651 5650
5742 5739 5735 5732 5729 5726 5723 5720 5717 5714 5712 5709 5707 5705 5703 5700 5698 5696 5694 5691 5689 5687 5684 5682 5680 5679 5677 5675 5673 5672 5670 5669 5667 5665 5664 5662 5660 5659 5657 5656 5654 5653 5652 5650
5741 5738 5735 5732 5729 5725 5722 5719 5717 5714 5712 5709 5707 5705 5702 5700 5698 5695 5693 5690 5688 5686 5683 5681 5679 5677 5675 5673 5672 5671 5670 5668 5667 5665 5664 5662 5661 5659 5658 5657 5655 5654 5653 5651
5740 5737 5734 5731 5728 5725 5722 5720 5717 5715 5712 5710 5707 5705 5703 5700 5698 5695 5693 5690 5688 5685 5683 5680 5678 5676 5674 5673 5672 5671 5670 5668 5667 5665 5664 5662 5661 5660 5659 5657 5656 5655 5653 5652
5739 5737 5734 5731 5729 5726 5723 5720 5718 5715 5713 5710 5708 5706 5703 5701 5699 5696 5694 5691 5689 5686 5684 5681 5678 5676 5674 5673 5672 5671 5670 5668 5667 5666 5664 5663 5662 5661 5659 5658 5657 5656 5654 5653
5738 5736 5733 5731 5729 5726 5723 5721 5718 5716 5714 5711 5709 5707 5705 5702 5700 5697 5695 5692 5690 5687 5685 5682 5680 5677 5675 5674 5673 5671 5670 5669 5668 5667 5665 5664 5663 5662 5661 5659 5658 5657 5655 5654
5737 5735 5733 5731 5729 5726 5724 5721 5719 5717 5715 5712 5710 5708 5706 5704 5701 5699 5696 5694 5692 5689 5686 5684 5681 5679 5677 5675 5674 5673 5672 5670 5669 5668 5667 5666 5664 5663 5662 5661 5660 5658 5657 5656
5736 5734 5732 5730 5728 5726 5724 5722 5720 5717 5715 5713 5711 5709 5707 5705 5703 5701 5698 5696 5694 5691 5689 5686 5684 5682 5680 5678 5676 5675 5673 5672 5671 5669 5668 5667 5666 5665 5664 5662 5661 5660 5659 5657
5735 5733 5732 5730 5728 5726 5724 5722 5720 5718 5716 5714 5712 5710 5709 5707 5705 5703 5701 5698 5696 5694 5691 5689 5687 5685 5682 5680 5679 5677 5676 5674 5673 5671 5670 5669 5668 5667 5666 5664 5663 5662 5661 5659
5733 5732 5731 5729 5727 5726 5724 5722 5720 5719 5717 5715 5713 5712 5710 5708 5706 5705 5703 5701 5698 5696 5694 5692 5690 5688 5686 5683 5682 5680 5678 5677 5675 5674 5673 5672 5670 5669 5668 5667 5665 5664 5663 5661
5732 5731 5729 5728 5727 5725 5723 5722 5720 5719 5717 5716 5714 5713 5711 5710 5708 5706 5704 5702 5701 5699 5697 5695 5693 5691 5689 5686 5684 5683 5681 5680 5678 5677 5675 5674 5673 5671 5670 5669 5667 5666 5665 5663
5730 5729 5728 5727 5726 5724 5723 5722 5720 5719 5717 5716 5715 5713 5712 5710 5709 5708 5706 5704 5702 5701 5699 5697 5695 5693 5691 5689 5687 5686 5684 5682 5681 5679 5678 5676 5675 5674 5672 5671 5670 5668 5667 5666
5727 5727 5726 5725 5724 5723 5722 5721 5720 5719 5717 5716 5715 5714 5712 5711 5710 5709 5707 5706 5704 5702 5701 5699 5697 5695 5694 5692 5690 5688 5687 5685 5683 5681 5680 5678 5677 5676 5674 5673 5672 5670 5669 5668